[TLELIST] Archives

 

[list_settings.list_name] Current TLEs

March 11th 2013 PDT

HST 1 20580U 90037B 13069.76766105 .00002019 00000-0 13285-3 0 1920 2 20580 028.4694 197.8831 0003498 023.0766 124.9535 15.03345727 54875 ISS (ZARYA) 1 25544U 98067A 13070.47962066 .00011288 00000-0 18637-3 0 3836 2 25544 051.6472 233.5204 0011902 004.6321 050.4649 15.52708251819535 CXO 1 25867U 99040B 13072.70861239 -.00000053 00000-0 00000+0 0 8716 2 25867 074.7975 345.5509 8635501 277.8862 000.4384 00.37801920 10176 ____________________________________________________________________ These 2-Line ...Continue Reading

[list_settings.list_name] Current TLEs

March 10th 2013 PDT

HST 1 20580U 90037B 13068.56002604 .00001980 00000-0 13007-3 0 1911 2 20580 028.4695 205.7962 0003454 010.7447 068.6333 15.03341762 54685 ISS (ZARYA) 1 25544U 98067A 13069.45683453 .00011052 00000-0 18281-3 0 3768 2 25544 051.6474 238.6079 0011859 000.9250 093.3129 15.52683517819372 CXO 1 25867U 99040B 13070.06437859 .00000099 00000-0 00000+0 0 8696 2 25867 074.7823 345.7089 8640863 277.9030 000.5169 00.37806008 10161 ____________________________________________________________________ These 2-Line ...Continue Reading

[list_settings.list_name] Current TLEs

March 9th 2013 PDT

HST 1 20580U 90037B 13067.49332684 .00002009 00000-0 13217-3 0 1901 2 20580 028.4695 212.7855 0003400 359.4165 055.5774 15.03337686 54522 ISS (ZARYA) 1 25544U 98067A 13068.49142624 .00010819 00000-0 17928-3 0 3690 2 25544 051.6467 243.4100 0011785 356.9934 097.4047 15.52660293819228 CXO 1 25867U 99040B 13070.06208313 .00000099 00000-0 00000+0 0 8709 2 25867 074.7824 345.7084 8640929 277.9019 000.2032 00.37807118 10166 ____________________________________________________________________ These 2-Line ...Continue Reading

[list_settings.list_name] Current TLEs

March 8th 2013 PDT

HST 1 20580U 90037B 13065.85087689 .00001757 00000-0 11404-3 0 1894 2 20580 028.4695 223.5476 0003380 343.1561 165.3609 15.03332840 54285 ISS (ZARYA) 1 25544U 98067A 13067.45936822 .00010555 00000-0 17525-3 0 3629 2 25544 051.6468 248.5432 0011639 353.1046 088.7497 15.52635997819061 CXO 1 25867U 99040B 13067.41729424 .00000285 00000-0 00000+0 0 8689 2 25867 074.7595 345.8980 8644886 277.8926 000.2878 00.37802252 10150 ____________________________________________________________________ These 2-Line ...Continue Reading

[list_settings.list_name] Current TLEs

March 7th 2013 PDT

HST 1 20580U 90037B 13065.85087689 .00001757 00000-0 11404-3 0 1894 2 20580 028.4695 223.5476 0003380 343.1561 165.3609 15.03332840 54285 ISS (ZARYA) 1 25544U 98067A 13066.28491898 .00010683 00000-0 17745-3 0 3578 2 25544 051.6477 254.3838 0011594 348.6257 004.3691 15.52610798818879 CXO 1 25867U 99040B 13067.41753781 .00000285 00000-0 00000+0 0 8671 2 25867 074.7594 345.9004 8644736 277.8920 000.3225 00.37802619 10159 ____________________________________________________________________ These 2-Line ...Continue Reading

[list_settings.list_name] Current TLEs

March 6th 2013 PDT

HST 1 20580U 90037B 13063.85792601 .00001356 00000-0 85230-4 0 1882 2 20580 028.4694 236.6065 0003324 323.3971 178.0293 15.03327380 53985 ISS (ZARYA) 1 25544U 98067A 13065.07972313 .00010498 00000-0 17468-3 0 3497 2 25544 051.6477 260.3780 0011596 343.9085 108.3652 15.52583370818698 CXO 1 25867U 99040B 13067.41753781 .00000285 00000-0 00000+0 0 8671 2 25867 074.7594 345.9004 8644736 277.8920 000.3225 00.37802619 10159 ____________________________________________________________________ These 2-Line ...Continue Reading

[list_settings.list_name] Current TLEs

March 5th 2013 PDT

HST 1 20580U 90037B 13063.85792601 .00001356 00000-0 85230-4 0 1882 2 20580 028.4694 236.6065 0003324 323.3971 178.0293 15.03327380 53985 ISS (ZARYA) 1 25544U 98067A 13064.29032407 .00010706 00000-0 17810-3 0 3449 2 25544 051.6476 264.3025 0011527 341.0242 016.1691 15.52566845818564 CXO 1 25867U 99040B 13064.77232808 .00000253 00000-0 00000+0 0 8663 2 25867 074.7414 346.0592 8646562 277.8825 000.3785 00.37799105 10142 ____________________________________________________________________ These 2-Line ...Continue Reading

[list_settings.list_name] Current TLEs

March 4th 2013 PDT

HST 1 20580U 90037B 13061.93397962 .00001680 00000-0 10856-3 0 1870 2 20580 028.4693 249.2129 0003228 302.6171 205.9559 15.03320689 53698 ISS (ZARYA) 1 25544U 98067A 13063.32116898 .00010322 00000-0 17213-3 0 3372 2 25544 051.6470 269.1229 0011425 337.8430 358.9600 15.52543798818419 CXO 1 25867U 99040B 13064.77232808 .00000253 00000-0 00000+0 0 8663 2 25867 074.7414 346.0592 8646562 277.8825 000.3785 00.37799105 10142 ____________________________________________________________________ These 2-Line ...Continue Reading

[list_settings.list_name] Current TLEs

March 3rd 2013 PDT

HST 1 20580U 90037B 13061.93397962 .00001680 00000-0 10856-3 0 1870 2 20580 028.4693 249.2129 0003228 302.6171 205.9559 15.03320689 53698 ISS (ZARYA) 1 25544U 98067A 13062.29137731 .00008819 00000-0 14836-3 0 3293 2 25544 051.6477 274.2434 0011366 334.3861 002.9710 15.52516343818251 CXO 1 25867U 99040B 13064.77232808 .00000253 00000-0 00000+0 0 8663 2 25867 074.7414 346.0592 8646562 277.8825 000.3785 00.37799105 10142 ____________________________________________________________________ These 2-Line ...Continue Reading

[list_settings.list_name] Current TLEs

March 2nd 2013 PDT

HST 1 20580U 90037B 13060.86945944 .00001398 00000-0 88287-4 0 1869 2 20580 028.4693 256.1881 0003163 291.3326 204.7521 15.03318079 53533 ISS (ZARYA) 1 25544U 98067A 13061.21997894 .00007496 00000-0 12740-3 0 3223 2 25544 051.6476 279.5704 0011253 329.6431 135.6638 15.52490569818099 CXO 1 25867U 99040B 13062.12809144 .00000156 00000-0 00000+0 0 8643 2 25867 074.7248 346.2260 8647793 277.8709 000.5727 00.37804301 10131 ____________________________________________________________________ These 2-Line ...Continue Reading
  • This mailing list is a public mailing list - anyone may join or leave, at any time.
  • This mailing list is announce-only.

International Space Station (ISS) / Hubble Space Telescope (HST) / Chandra X-Ray Observatory Orbital Data via EMAIL

Privacy Policy:

Private list